#timestamp,LO_Frequency,Hit,StdDev 
1570514415.6,286046998.9,N
1570514435.5,286046997.2,N
1570514455.3,286046999.3,N
1570514475.2,286046994.9,Y
1570514495.9,286046997.4,P
1570514515.7,286046998.8,N
1570514535.6,286046999.1,N
1570514555.4,286046998.4,N
1570514575.2,286047000.8,N
1570514595.1,286046998.7,N
1570514596.0,286046998.7,N
1570514615.8,286046996.6,Y
1570514635.7,286047000.8,P
1570514655.5,286047000.4,N
1570514675.3,286046999.7,N
1570514695.2,286047000.3,N
1570514715.0,286047000.5,N
1570514715.9,286047000.5,N
1570514735.8,286047002.7,Y
1570514755.6,286047000.5,P
1570514775.4,286047002.7,P
1570514795.3,286047000.9,N
1570514815.1,286047000.1,N
1570514835.9,286047000.0,N
1570514855.7,286047002.7,N
1570514875.5,286047002.3,N
1570514895.4,286046999.8,N
1570514915.2,286047001.7,N
1570514935.0,286047001.3,N
1570514936.0,286047001.3,N
1570514955.8,286046999.7,N
1570514975.6,286047002.3,N
1570514995.5,286047002.2,N
1570515015.3,286047003.9,Y
1570515035.1,286047002.6,P
1570515055.9,286047002.4,P
1570515075.7,286047002.7,P
1570515095.6,286047002.3,Y
1570515115.4,286046998.1,P
1570515135.3,286046998.9,N
1570515155.1,286046996.6,N
1570515156.0,286046996.6,N
1570515175.8,286046998.6,N
1570515195.7,286046998.6,N
1570515215.5,286046998.6,N
1570515235.4,286046998.9,N
1570515255.2,286046998.7,N
1570515275.0,286046996.6,N
1570515275.9,286046996.6,N
1570515295.8,286046996.9,N
1570515315.6,286046997.5,N
1570515335.5,286046997.0,N
1570515355.3,286046996.8,N
1570515375.1,286046996.8,N
1570515395.9,286046997.8,N
1570515415.7,286046997.3,N
1570515435.5,286046999.6,N
1570515455.4,286046996.7,N
1570515475.2,286046998.8,N
1570515495.1,286046999.2,N
1570515496.0,286046999.2,N
1570515515.8,286046996.8,N
1570515535.6,286046999.2,N
1570515555.5,286046998.7,N
1570515575.3,286046998.4,N
1570515595.2,286046999.0,N
1570515615.9,286046996.6,N
1570515635.7,286046998.4,N
1570515655.6,286046998.4,N
1570515705.4,286046999.1,E
1570515715.3,286046999.4,N
1570515735.2,286047000.7,P
1570515755.0,286047002.5,P
1570515755.9,286047002.5,N
1570515775.8,286047001.8,N
1570515795.6,286047002.6,N
1570515815.4,286047000.9,N
1570515835.3,286046998.9,N
1570515855.1,286047001.1,N
1570515875.8,286047000.3,N
1570515895.7,286047000.5,N
1570515915.5,286047000.3,N
1570515935.4,286047000.8,N
1570515955.2,286047000.5,N
1570515975.1,286046999.3,N
1570515976.0,286046999.3,N
1570515995.8,286046997.2,N
1570516015.6,286046996.8,N
1570516035.5,286046999.6,N
1570516055.3,286046998.7,N
1570516075.1,286046997.4,N
1570516095.9,286046997.2,N
1570516115.7,286046996.6,N
1570516135.6,286046998.3,N
1570516155.4,286046999.3,N
1570516175.2,286046998.5,N
1570516195.1,286047000.7,N
1570516196.0,286047000.7,N
1570516215.8,286047000.3,N
1570516235.7,286047002.3,N
1570516255.5,286047000.5,N
1570516275.6,286047002.8,N
1570516295.5,286047000.0,N
1570516315.3,286047000.7,N
1570516335.1,286046999.1,N
1570516355.9,286046998.8,N
1570516375.7,286046998.5,N
1570516395.6,286047000.7,N
1570516415.4,286046998.6,N
1570516435.2,286047001.0,N
1570516455.1,286046998.2,N
1570516456.0,286046998.2,N
1570516475.8,286046998.2,N
1570516495.7,286046998.4,N
1570516515.5,286046996.9,N
1570516535.3,286047000.5,N
1570516555.2,286047001.2,N
1570516575.0,286046998.6,N
1570516575.9,286046998.6,N
1570516595.8,286047002.8,N
1570516615.6,286047000.3,N
1570516635.4,286047002.7,N
1570516655.3,286047000.7,N
1570516675.1,286047000.3,N
1570516695.9,286047000.6,N
1570516715.7,286047000.4,N
1570516735.5,286046998.6,N
1570516755.4,286046998.5,N
1570516775.2,286046998.3,N
1570516795.0,286046999.0,N
1570516795.9,286046999.0,N
1570516815.8,286046998.2,N
1570516835.6,286047000.5,N
1570516855.5,286046998.1,N
1570516875.3,286047000.1,N
1570516895.1,286047002.0,N
1570516915.9,286047001.5,N
1570516935.7,286047002.3,N
1570516955.6,286047002.6,N
1570516975.4,286047002.4,N
1570516995.2,286046999.9,N
1570517015.1,286046998.2,N
1570517016.0,286046998.2,N
1570517035.8,286047000.3,N
1570517055.7,286047001.2,N
1570517075.5,286047002.4,N
1570517095.3,286047001.4,N
1570517115.2,286047000.5,N
1570517135.0,286046999.5,N
1570517135.9,286046999.5,N
1570517155.7,286046996.8,N
1570517175.6,286046999.5,N
1570517195.4,286046998.3,N
1570517215.3,286046998.2,N
1570517235.1,286047001.2,N
1570517255.8,286047000.5,N
1570517275.7,286047000.1,N
1570517295.5,286047000.2,N
1570517315.4,286047001.7,N
1570517335.2,286047001.5,N
1570517355.0,286047002.2,N
1570517355.9,286047002.2,N
1570517375.8,286047000.1,N
1570517395.6,286047000.6,N
1570517415.4,286046998.6,N
1570517435.3,286047000.8,N
1570517455.6,286046998.5,N
1570517475.4,286047000.8,N
1570517495.2,286047000.6,N
1570517515.1,286047000.2,N
1570517516.0,286047000.2,N
1570517535.8,286047002.5,N
1570517555.6,286047000.0,N
1570517575.5,286047001.2,N
1570517595.3,286046998.2,N
1570517615.2,286047000.4,N
1570517635.9,286047000.1,N
1570517655.7,286047002.7,N
1570517675.6,286047002.6,N
1570517695.4,286047002.1,N
1570517715.3,286047001.6,N
1570517735.1,286047001.5,N
1570517736.0,286047001.5,N
1570517755.8,286047003.4,N
1570517775.7,286047003.9,Y
1570517795.5,286047002.8,P
1570517815.3,286047002.4,N
1570517835.2,286047001.9,N
1570517855.0,286047001.6,N
1570517855.9,286047001.6,N
1570517875.8,286047003.8,Y
1570517895.6,286046999.7,P
1570517915.4,286047001.0,N
1570517935.3,286047002.7,N
1570517955.1,286047002.7,N
1570517975.9,286047002.3,N
1570517995.7,286047002.8,N
